Location: Bletchingley
(51.2333°N, 0.1000°W)
Time: 05:29:48
(UTC+00:00)

Cosmos 1048 Rocket - Pass Details

Date: 18 September 2020
Orbit: 743 x 792 km, 74.0° (Epoch: 20 October)

Event Time Altitude Azimuth Distance (km) Brightness Sun altitude
Rises 19:22:24 0° 336° (NNW) 3,253 7.9 -12.4°
Reaches altitude 10° 19:24:48 10° 340° (NNW) 2,331 7.1 -12.8°
Maximum altitude 19:30:04 62° 61° (ENE) 881 4.1 -13.6°
Enters shadow 19:34:10 17° 139° (SE) 1,909 5.5 -14.2°
